EN

Hourly Weather Dziemiany

Today, 28 October, Wednesday

Time Temperature Precipitation Wind Pressure Humidity
00:00 +7°C° 0 mm 4 mps 742 mmHg 81%
01:00 +6°C° 0 mm 4 mps 743 mmHg 81%
02:00 +6°C° 0 mm 4 mps 742 mmHg 82%
03:00 +6°C° 0 mm 4 mps 742 mmHg 82%
04:00 +6°C° 0 mm 4 mps 742 mmHg 82%
05:00 +6°C° 0 mm 4 mps 742 mmHg 82%
06:00 +6°C° 0 mm 4 mps 742 mmHg 81%
07:00 +6°C° 0 mm 5 mps 742 mmHg 79%
08:00 +7°C° 0 mm 5 mps 742 mmHg 74%
09:00 +8°C° 0 mm 6 mps 742 mmHg 69%
10:00 +9°C° 0 mm 6 mps 742 mmHg 64%
11:00 +9°C° 0 mm 6 mps 742 mmHg 65%
12:00 +9°C° 0 mm 6 mps 742 mmHg 66%
13:00 +8°C° 0 mm 5 mps 742 mmHg 70%
14:00 +8°C° 0.3 mm 5 mps 742 mmHg 74%
15:00 +8°C° 0.3 mm 5 mps 742 mmHg 79%
16:00 +7°C° 0.3 mm 5 mps 742 mmHg 84%
17:00 +7°C° 0 mm 4 mps 742 mmHg 85%
18:00 +7°C° 0 mm 4 mps 742 mmHg 87%
19:00 +8°C° 0 mm 3 mps 742 mmHg 89%
20:00 +8°C° 0 mm 3 mps 742 mmHg 89%
21:00 +8°C° 0 mm 3 mps 742 mmHg 90%
22:00 +8°C° 0 mm 3 mps 742 mmHg 91%
23:00 +8°C° 0 mm 3 mps 742 mmHg 92%

Tomorrow, 29 October, Thursday

Time Temperature Precipitation Wind Pressure Humidity
00:00 +7°C° 0 mm 3 mps 742 mmHg 94%
01:00 +7°C° 0 mm 3 mps 742 mmHg 95%
02:00 +7°C° 0 mm 3 mps 742 mmHg 96%
03:00 +7°C° 0 mm 3 mps 741 mmHg 96%
04:00 +7°C° 0 mm 3 mps 741 mmHg 96%
05:00 +7°C° 0 mm 3 mps 741 mmHg 96%
06:00 +7°C° 0 mm 3 mps 741 mmHg 96%
07:00 +7°C° 0 mm 3 mps 741 mmHg 95%
08:00 +6°C° 0 mm 4 mps 741 mmHg 91%
09:00 +7°C° 0 mm 4 mps 741 mmHg 87%
10:00 +8°C° 0 mm 5 mps 740 mmHg 84%
11:00 +8°C° 0.3 mm 4 mps 740 mmHg 84%
12:00 +8°C° 0.3 mm 4 mps 740 mmHg 85%
13:00 +8°C° 0.3 mm 4 mps 740 mmHg 85%
14:00 +8°C° 0.2 mm 4 mps 740 mmHg 83%
15:00 +8°C° 0.2 mm 4 mps 741 mmHg 80%
16:00 +8°C° 0.2 mm 4 mps 741 mmHg 77%
17:00 +7°C° 0.2 mm 4 mps 741 mmHg 80%
18:00 +7°C° 0.2 mm 5 mps 741 mmHg 83%
19:00 +7°C° 0.2 mm 5 mps 741 mmHg 85%
20:00 +7°C° 0.5 mm 5 mps 742 mmHg 86%
21:00 +7°C° 0.5 mm 5 mps 742 mmHg 87%
22:00 +7°C° 0.5 mm 5 mps 742 mmHg 88%
23:00 +7°C° 1.1 mm 5 mps 742 mmHg 86%

Day after tomorrow, 30 October, Friday

Time Temperature Precipitation Wind Pressure Humidity
00:00 +8°C° 1.1 mm 6 mps 743 mmHg 85%
01:00 +8°C° 1.1 mm 6 mps 743 mmHg 83%
02:00 +7°C° 0 mm 5 mps 743 mmHg 85%
03:00 +7°C° 0 mm 5 mps 744 mmHg 87%
04:00 +7°C° 0 mm 4 mps 744 mmHg 89%
05:00 +7°C° 0 mm 4 mps 744 mmHg 89%
06:00 +7°C° 0 mm 4 mps 745 mmHg 89%
07:00 +7°C° 0 mm 4 mps 745 mmHg 89%
08:00 +7°C° 0 mm 4 mps 745 mmHg 87%
09:00 +7°C° 0 mm 4 mps 745 mmHg 85%
10:00 +8°C° 0 mm 3 mps 745 mmHg 83%
11:00 +8°C° 0 mm 3 mps 745 mmHg 81%
12:00 +8°C° 0 mm 3 mps 745 mmHg 79%
13:00 +9°C° 0 mm 3 mps 745 mmHg 77%
14:00 +8°C° 0.3 mm 3 mps 745 mmHg 81%
15:00 +8°C° 0.3 mm 2 mps 745 mmHg 86%
16:00 +7°C° 0.3 mm 2 mps 745 mmHg 90%
17:00 +8°C° 0.3 mm 2 mps 745 mmHg 92%
18:00 +8°C° 0.3 mm 2 mps 745 mmHg 93%
19:00 +8°C° 0.3 mm 2 mps 745 mmHg 94%
20:00 +9°C° 0.2 mm 1 mps 745 mmHg 94%
21:00 +8°C° 0.2 mm 1 mps 746 mmHg 95%
22:00 +8°C° 0.2 mm 1 mps 746 mmHg 95%
23:00 +8°C° 0 mm 1 mps 746 mmHg 95%

31 October, Saturday

Time Temperature Precipitation Wind Pressure Humidity
00:00 +8°C° 0 mm 1 mps 747 mmHg 96%
01:00 +8°C° 0 mm 1 mps 747 mmHg 96%
02:00 +8°C° 0 mm 1 mps 747 mmHg 96%
03:00 +7°C° 0 mm 1 mps 748 mmHg 95%
04:00 +7°C° 0 mm 1 mps 748 mmHg 95%
05:00 +7°C° 0 mm 1 mps 749 mmHg 95%
06:00 +7°C° 0 mm 1 mps 749 mmHg 95%
07:00 +7°C° 0 mm 1 mps 749 mmHg 95%
08:00 +8°C° 0 mm 1 mps 750 mmHg 91%
09:00 +8°C° 0 mm 2 mps 750 mmHg 88%
10:00 +9°C° 0 mm 2 mps 750 mmHg 84%
11:00 +9°C° 0 mm 2 mps 750 mmHg 82%
12:00 +10°C° 0 mm 2 mps 750 mmHg 79%
13:00 +10°C° 0 mm 2 mps 751 mmHg 76%
14:00 +10°C° 0 mm 2 mps 750 mmHg 78%
15:00 +10°C° 0 mm 2 mps 750 mmHg 80%
16:00 +9°C° 0 mm 2 mps 750 mmHg 83%
17:00 +9°C° 0 mm 2 mps 750 mmHg 83%
18:00 +9°C° 0 mm 2 mps 751 mmHg 84%
19:00 +8°C° 0 mm 3 mps 751 mmHg 85%
20:00 +8°C° 0 mm 3 mps 751 mmHg 84%
21:00 +8°C° 0 mm 3 mps 751 mmHg 84%
22:00 +8°C° 0 mm 3 mps 750 mmHg 83%
23:00 +8°C° 0 mm 3 mps 750 mmHg 82%

1 November, Sunday

Time Temperature Precipitation Wind Pressure Humidity
00:00 +7°C° 0 mm 4 mps 750 mmHg 82%
01:00 +6°C° 0 mm 4 mps 750 mmHg 81%
02:00 +6°C° 0 mm 4 mps 750 mmHg 81%
03:00 +6°C° 0 mm 4 mps 750 mmHg 80%
04:00 +5°C° 0 mm 4 mps 749 mmHg 80%
05:00 +5°C° 0 mm 4 mps 749 mmHg 80%
06:00 +5°C° 0 mm 4 mps 749 mmHg 81%
07:00 +5°C° 0 mm 4 mps 749 mmHg 81%
08:00 +6°C° 0 mm 5 mps 749 mmHg 77%
09:00 +7°C° 0 mm 5 mps 749 mmHg 73%
10:00 +8°C° 0 mm 6 mps 748 mmHg 69%
11:00 +9°C° 0 mm 6 mps 748 mmHg 67%
12:00 +9°C° 0 mm 6 mps 748 mmHg 64%
13:00 +10°C° 0 mm 6 mps 747 mmHg 62%
14:00 +10°C° 0 mm 6 mps 747 mmHg 65%
15:00 +9°C° 0 mm 6 mps 746 mmHg 67%
16:00 +9°C° 0 mm 6 mps 746 mmHg 70%
17:00 +9°C° 0 mm 5 mps 746 mmHg 72%
18:00 +8°C° 0 mm 5 mps 746 mmHg 74%
19:00 +8°C° 0 mm 5 mps 746 mmHg 77%
20:00 +8°C° 0 mm 5 mps 746 mmHg 80%
21:00 +8°C° 0 mm 5 mps 745 mmHg 83%
22:00 +8°C° 0 mm 5 mps 745 mmHg 86%
23:00 +8°C° 0 mm 5 mps 745 mmHg 89%

2 November, Monday

Time Temperature Precipitation Wind Pressure Humidity
00:00 +8°C° 0 mm 4 mps 745 mmHg 91%
01:00 +10°C° 0 mm 4 mps 745 mmHg 93%
02:00 +10°C° 0 mm 4 mps 744 mmHg 93%
03:00 +10°C° 0 mm 4 mps 744 mmHg 93%
04:00 +10°C° 0 mm 3 mps 744 mmHg 93%
05:00 +10°C° 0 mm 4 mps 744 mmHg 94%
06:00 +10°C° 0 mm 4 mps 744 mmHg 94%
07:00 +10°C° 0 mm 4 mps 744 mmHg 94%
08:00 +11°C° 0 mm 4 mps 744 mmHg 92%
09:00 +11°C° 0 mm 4 mps 744 mmHg 90%
10:00 +12°C° 0 mm 4 mps 744 mmHg 88%
11:00 +13°C° 0 mm 4 mps 744 mmHg 85%
12:00 +13°C° 0 mm 4 mps 744 mmHg 82%
13:00 +14°C° 0 mm 5 mps 745 mmHg 80%
14:00 +14°C° 0 mm 4 mps 744 mmHg 82%
15:00 +14°C° 0 mm 4 mps 744 mmHg 83%
16:00 +13°C° 0 mm 4 mps 744 mmHg 85%
17:00 +13°C° 0 mm 3 mps 745 mmHg 87%
18:00 +13°C° 0 mm 3 mps 745 mmHg 89%
19:00 +12°C° 0 mm 3 mps 745 mmHg 91%
20:00 +12°C° 0 mm 3 mps 745 mmHg 92%
21:00 +12°C° 0 mm 3 mps 745 mmHg 93%
22:00 +12°C° 0 mm 3 mps 746 mmHg 94%
23:00 +12°C° 0 mm 3 mps 746 mmHg 93%
Show more